Location: Vassar Physics Lab
(41.6843°N, 73.8954°W)
Time: 19:01:26
(UTC-04:00)

Daily predictions for brighter satellites

Satellite Brightness Start Highest point End
(mag) Time Altitude Azimuth Time Altitude Azimuth Time Altitude Azimuth
Cosmos 1328 Rocket 3.7 20:59:56 10° N 21:04:22 61° E 21:08:45 10° SSE
Cosmos 371 Rocket 3.3 21:00:46 10° NNW 21:05:36 81° ENE 21:10:24 10° SSE
ERS-1 Rocket 3.0 21:01:41 10° SSE 21:06:43 88° ENE 21:11:48 10° NNW
Cosmos 2228 Rocket 3.1 21:04:35 10° N 21:09:04 89° E 21:13:35 10° S
SPOT 5 3.3 21:07:30 10° SE 21:11:46 43° ENE 21:16:16 10° N
Cosmos 1777 Rocket 4.3 21:07:29 10° S 21:12:30 46° ESE 21:17:31 10° NNE
ALOS 3.8 21:09:24 10° SSW 21:13:40 36° W 21:17:59 10° NNW
YAOGAN 6 4.1 21:11:57 10° ESE 21:14:53 23° ENE 21:17:47 10° NNE
Cosmos 1743 Rocket 3.6 21:13:14 10° S 21:17:42 90° SSE 21:22:12 10° N
Cosmos 405 4.0 21:15:06 10° N 21:18:24 32° ENE 21:21:39 10° SE
ARGOS 4.4 21:14:47 10° ESE 21:19:16 27° ENE 21:23:45 10° N
Cosmos 1437 4.3 21:19:14 10° SE 21:21:43 20° E 21:24:12 10° NE
H-2A R/B 4.0 21:21:11 10° E 21:24:23 16° ENE 21:27:38 10° NNE
USA 186 4.2 21:23:30 10° WSW 21:24:27 12° W 21:25:26 10° WNW
Cosmos 1500 Rocket 3.5 21:20:09 10° S 21:24:29 72° E 21:28:53 10° NNE
deb Chang Zheng 4 3.7 21:21:33 10° NNE 21:25:54 84° WNW 21:30:14 10° SSW
Cosmos 2219 4.3 21:21:46 10° SSE 21:26:23 25° ESE 21:31:00 10° NE
BREEZE M DEB (TANK) 3.9 21:29:23 10° SW 21:30:15 11° SSW 21:31:18 10° S
Cosmos 2322 4.1 21:28:27 10° NNW 21:34:02 51° ENE 21:38:57 13° SE
Cosmos 1441 Rocket 3.3 21:31:44 10° SSW 21:35:30 76° W 21:39:16 10° N
SPOT 1/Viking Rocket 4.1 21:31:27 12° SE 21:35:58 43° ENE 21:40:51 10° N
ATLAS CENTAUR R/B 3.1 21:32:12 10° NW 21:36:06 29° WSW 21:39:44 10° S
CZ-2C R/B 2.7 21:37:44 10° SW 21:38:54 15° W 21:40:04 10° NW
Delta 2 Rocket 4.2 21:36:51 10° SW 21:39:29 20° SSE 21:40:48 16° SE
Cosmos 2322 Rocket 2.9 21:34:43 10° NNW 21:40:10 52° WSW 21:45:34 10° S
Cosmos 1680 Rocket 3.9 21:35:12 10° N 21:40:18 49° ENE 21:44:32 15° SE
PSLV R/B 3.1 21:37:46 12° SSE 21:40:33 80° ENE 21:43:38 10° N
OE (NEXTSAT) 4.4 21:38:51 10° WNW 21:42:26 77° SSW 21:45:08 16° ESE
Cosmos 923 Rocket 4.0 21:38:24 10° NNW 21:43:37 69° ENE 21:47:59 14° SSE
Cosmos 1726 3.9 21:43:12 10° NNE 21:45:58 19° ENE 21:47:47 14° ESE
SL-16 R/B 3.0 21:44:01 10° NW 21:49:25 47° WSW 21:54:49 10° S
USA 245 3.0 21:48:59 21° SE 21:50:21 38° ENE 21:52:40 10° N
Cosmos 304 Rocket 3.9 21:46:00 10° NNW 21:50:47 62° ENE 21:54:23 17° SSE
Cosmos 2360 Rocket 2.3 21:45:33 10° NNW 21:51:12 71° ENE 21:55:40 17° SSE
Cosmos 1515 Rocket 4.3 21:47:28 10° NNW 21:51:48 52° W 21:56:04 10° S
Cosmos 2315 Rocket 4.2 21:46:14 10° N 21:52:22 58° E 21:57:25 15° SSE
Cosmos 1939 Rocket 4.1 21:49:40 10° SSW 21:53:22 37° W 21:57:01 10° NNW
CZ-4B R/B 3.6 21:48:40 10° NNE 21:53:54 61° ESE 21:59:03 10° S
Cosmos 1908 3.4 21:50:04 10° NNW 21:53:57 73° W 21:57:31 12° S
AVUM R/B 2.4 21:53:15 10° SSW 21:55:31 81° WNW 21:58:00 10° NNE
Cosmos 2266 Rocket 4.1 21:51:48 10° S 21:58:09 84° W 22:04:24 10° N
USA 229 DEB 3.9 21:57:53 10° SW 22:04:48 76° NW 22:11:51 10° NNE
USA 229 3.9 21:57:59 10° SW 22:04:54 77° NW 22:11:57 10° NNE
Cosmos 773 Rocket 4.4 22:01:11 10° NNW 22:06:17 59° WSW 22:10:41 14° S
Cosmos 1633 Rocket 3.9 22:05:12 22° SE 22:07:13 32° E 22:11:08 10° NNE
Sich 1 3.8 22:05:33 22° SE 22:07:44 35° E 22:11:44 10° NNE
Aureole 3 4.5 22:04:03 10° S 22:11:05 85° E 22:16:46 10° N
MetOp-B 4.5 22:06:25 12° S 22:11:17 65° WSW 22:16:37 10° NNW
Cosmos 2151 3.2 22:10:27 10° SSW 22:14:38 69° W 22:18:50 10° N
Cosmos 1674 3.8 22:11:14 10° SSW 22:14:53 43° WNW 22:18:35 10° N
Terra 2.7 22:12:30 21° ESE 22:15:00 35° ENE 22:19:19 10° N
Cosmos 2227 Rocket 3.7 22:16:00 16° ESE 22:16:44 17° E 22:20:11 10° ENE
Cosmos 1437 Rocket 4.4 22:13:40 10° NNW 22:17:00 29° W 22:20:20 10° SSW
SL-23 DEB 3.7 22:12:59 10° NW 22:17:53 84° NNE 22:19:34 29° ESE
Cosmos 1805 Rocket 3.5 22:17:06 18° S 22:20:22 78° E 22:24:50 10° N
Cosmos 2333 Rocket 3.7 22:16:46 10° N 22:21:32 26° NE 22:25:11 15° ESE
Cosmos 1151 Rocket 4.1 22:17:44 10° NNW 22:21:47 41° W 22:25:32 12° SSW
Meteor 1-4 Rocket 3.6 22:19:37 10° N 22:23:05 33° ENE 22:24:10 28° ESE
USA 32 4.5 22:18:15 10° N 22:23:20 47° E 22:25:56 26° SE
Cosmos 1300 2.6 22:19:35 10° N 22:23:26 73° E 22:25:07 32° SSE
CZ-4 R/B 3.8 22:19:28 10° NNE 22:24:28 85° ESE 22:28:34 15° SSW
NOSS 3-1 (A) 3.7 22:20:06 15° S 22:24:31 42° ESE 22:30:28 10° NE
Cosmos 1626 4.1 22:25:01 15° E 22:25:01 15° E 22:27:14 10° NE
SL-16 R/B 4.5 22:24:43 10° NNE 22:27:13 13° NE 22:29:43 10° ENE
CZ-4C R/B 2.9 22:31:52 39° SSE 22:33:03 79° ENE 22:36:32 10° N
COSMOS 2428 2.7 22:27:48 10° NNW 22:33:31 76° ENE 22:36:34 28° SSE
Cosmos 1745 Rocket 4.3 22:32:33 25° SSE 22:35:55 50° E 22:41:52 10° NNE
Cosmos 1707 Rocket 3.6 22:34:08 10° NNW 22:38:29 75° W 22:40:38 29° S
Cosmos 1666 Rocket 3.5 22:39:51 25° S 22:42:23 83° W 22:46:50 10° N
DELTA 2 R/B (1) 3.8 22:38:32 10° W 22:43:51 49° SSW 22:45:57 33° SE
Cosmos 2297 Rocket 3.6 22:43:59 20° ESE 22:44:16 20° E 22:48:13 10° NE
Cosmos 2298 Rocket 3.9 22:41:52 19° SSW 22:45:41 80° ESE 22:51:02 10° NNE
Cosmos 2058 3.7 22:42:56 16° SSW 22:46:00 49° WNW 22:49:59 10° N
Cosmos 1455 3.3 22:43:03 10° NNE 22:46:25 29° ENE 22:46:54 28° E
ATLAS 2AS CENTAUR R/B 3.7 22:45:16 26° SE 22:47:17 29° ESE 22:53:49 10° NE
Cosmos 2219 Rocket 2.5 22:48:45 10° NNW 22:54:15 56° ENE 22:56:41 32° SE
Cosmos 2237 4.3 22:49:27 10° NNW 22:55:10 70° WSW 22:57:51 32° S
Cosmos 1470 Rocket 3.7 22:54:47 44° SE 22:55:42 53° E 22:59:55 10° NNE
Cosmos 1933 Rocket 3.8 22:56:12 43° SE 22:57:14 53° E 23:01:35 10° NNE
Cosmos 1937 Rocket 3.5 22:56:44 34° S 22:58:54 64° ESE 23:04:04 10° NNE
ARGOS 4.1 22:55:49 19° SSW 22:59:18 40° W 23:04:23 10° NNW
H-2A R/B 2.2 23:00:41 33° S 23:03:08 73° WSW 23:08:34 10° NNW
Cosmos 220 Rocket 4.0 23:02:18 49° SSE 23:03:14 62° ESE 23:07:37 10° NNE
BREEZE-M DEB (TANK) 3.2 23:04:26 10° NW 23:06:27 38° NNE 23:07:05 32° ENE
Cosmos 1386 Rocket 4.4 23:04:48 35° SSE 23:07:18 64° E 23:13:15 10° NNE
SL-14 R/B 4.4 23:05:19 22° SW 23:07:26 40° WNW 23:11:13 10° N
Cosmos 1980 4.1 23:02:15 10° NNW 23:07:46 52° ENE 23:10:00 33° ESE
Cosmos 1703 3.3 23:07:24 47° SSW 23:08:24 74° W 23:12:20 10° N
IGS 5A 3.5 23:07:26 47° S 23:08:31 72° W 23:12:41 10° NNW
ATLAS 3B R/B 3.9 23:03:40 10° NNW 23:10:01 34° NE 23:15:00 14° E
Cosmos 2219 4.2 23:04:41 10° SW 23:10:12 47° WNW 23:15:46 10° NNE
NOSS 3-1 (C) 3.6 23:06:52 10° SW 23:12:44 71° NW 23:19:17 10° NNE
Cosmos 1271 Rocket 3.1 23:10:25 10° NNW 23:14:10 56° W 23:14:50 48° SW
Cosmos 990 Rocket 3.9 23:13:26 45° SSE 23:14:49 63° ESE 23:19:54 10° NNE
NOSS 0 Rocket 3.9 23:08:44 10° NNW 23:14:55 74° ENE 23:17:23 38° SE
Cosmos 2242 Rocket 4.2 23:10:42 10° NNW 23:15:02 51° W 23:16:33 35° SSW
Cosmos 2333 4.4 23:10:38 10° NNW 23:16:17 63° WSW 23:18:26 37° S
Cosmos 2237 Rocket 2.4 23:15:37 10° NNW 23:21:17 62° ENE 23:23:15 39° SE
Cosmos 1726 3.8 23:18:09 10° NNW 23:21:21 26° W 23:22:28 22° WSW
SAR-Lupe-2 4.3 23:22:48 42° WSW 23:23:06 43° W 23:26:33 10° NNW
Cosmos 2082 3.8 23:21:48 43° SSE 23:23:24 59° ESE 23:29:01 10° NNE
Cosmos 1933 4.3 23:20:31 10° N 23:24:14 34° ENE 23:24:22 34° E
Cosmos 2360 Rocket 4.3 23:31:14 10° WNW 23:34:32 16° W 23:37:27 11° SW
Cosmos 1862 Rocket 3.6 23:32:24 10° NNW 23:36:44 66° W 23:37:19 58° SW
Cosmos 1125 Rocket 3.8 23:42:38 47° ESE 23:43:05 48° ESE 23:48:10 10° NNE
CZ-4B R/B 3.5 23:43:58 20° ENE 23:43:58 20° ENE 23:46:21 10° NNE
Cosmos 1689 Rocket 4.4 23:53:08 21° NE 23:53:08 21° NE 23:55:12 10° NNE
Terra 3.4 23:51:23 22° WSW 23:52:47 25° W 23:56:42 10° NW
